When you browse on this site, cookies collect data to enhance your experience and personalize the content and advertising you see.
Visit our Privacy Policy to learn more. By continuing to use the site, you agree to this use of cookies and data.
  • In United Kingdom
  • List of Countries
  • For 7 days
  • Water Temperature
  • Satellite Maps
  • Weather Map
  • Weather Widgets
  • user-avatar
    Login

    Hourly Weather Shaposhnykove

    Today, 25 June, Tuesday

    Time Temperature Precipitation Wind Pressure Humidity
    00:00 +22°C° 0.1 mm 3 mps 746 mmHg 71%
    01:00 +22°C° 0.1 mm 3 mps 746 mmHg 72%
    02:00 +22°C° 0.1 mm 3 mps 746 mmHg 72%
    03:00 +22°C° 0 mm 3 mps 746 mmHg 66%
    04:00 +22°C° 0 mm 3 mps 746 mmHg 66%
    05:00 +22°C° 0 mm 4 mps 746 mmHg 66%
    06:00 +22°C° 0 mm 5 mps 746 mmHg 65%
    07:00 +24°C° 0 mm 6 mps 746 mmHg 65%
    08:00 +26°C° 0 mm 6 mps 747 mmHg 65%
    09:00 +27°C° 0 mm 7 mps 747 mmHg 67%
    10:00 +28°C° 0.1 mm 7 mps 747 mmHg 64%
    11:00 +28°C° 0.1 mm 7 mps 748 mmHg 62%
    12:00 +29°C° 0.1 mm 7 mps 748 mmHg 60%
    13:00 +28°C° 0.4 mm 7 mps 748 mmHg 63%
    14:00 +27°C° 0.4 mm 7 mps 748 mmHg 66%
    15:00 +27°C° 0.4 mm 7 mps 748 mmHg 69%
    16:00 +26°C° 0.2 mm 7 mps 748 mmHg 70%
    17:00 +24°C° 0.2 mm 6 mps 748 mmHg 71%
    18:00 +24°C° 0.2 mm 6 mps 748 mmHg 72%
    19:00 +23°C° 0 mm 5 mps 749 mmHg 72%
    20:00 +22°C° 0 mm 5 mps 749 mmHg 72%
    21:00 +21°C° 0 mm 4 mps 750 mmHg 72%
    22:00 +21°C° 0 mm 5 mps 750 mmHg 69%
    23:00 +20°C° 0 mm 5 mps 750 mmHg 66%

    Tomorrow, 26 June, Wednesday

    Time Temperature Precipitation Wind Pressure Humidity
    00:00 +20°C° 0 mm 6 mps 750 mmHg 63%
    01:00 +19°C° 0 mm 6 mps 750 mmHg 66%
    02:00 +19°C° 0 mm 6 mps 751 mmHg 68%
    03:00 +17°C° 0 mm 6 mps 751 mmHg 71%
    04:00 +17°C° 0 mm 6 mps 751 mmHg 71%
    05:00 +17°C° 0 mm 6 mps 751 mmHg 71%
    06:00 +16°C° 0 mm 6 mps 751 mmHg 72%
    07:00 +19°C° 0 mm 6 mps 751 mmHg 66%
    08:00 +20°C° 0 mm 6 mps 751 mmHg 61%
    09:00 +22°C° 0 mm 6 mps 752 mmHg 56%
    10:00 +23°C° 0 mm 6 mps 751 mmHg 51%
    11:00 +24°C° 0 mm 6 mps 751 mmHg 47%
    12:00 +26°C° 0 mm 6 mps 751 mmHg 43%
    13:00 +26°C° 0 mm 6 mps 751 mmHg 42%
    14:00 +27°C° 0 mm 6 mps 751 mmHg 41%
    15:00 +27°C° 0 mm 5 mps 751 mmHg 40%
    16:00 +27°C° 0 mm 5 mps 750 mmHg 43%
    17:00 +26°C° 0 mm 5 mps 750 mmHg 45%
    18:00 +26°C° 0 mm 5 mps 750 mmHg 47%
    19:00 +23°C° 0 mm 4 mps 750 mmHg 52%
    20:00 +21°C° 0 mm 3 mps 750 mmHg 56%
    21:00 +20°C° 0 mm 3 mps 750 mmHg 61%
    22:00 +19°C° 0 mm 3 mps 749 mmHg 64%
    23:00 +18°C° 0 mm 3 mps 749 mmHg 67%

    Day after tomorrow, 27 June, Thursday

    Time Temperature Precipitation Wind Pressure Humidity
    00:00 +17°C° 0 mm 3 mps 749 mmHg 70%
    01:00 +17°C° 0 mm 3 mps 749 mmHg 71%
    02:00 +16°C° 0 mm 3 mps 749 mmHg 73%
    03:00 +16°C° 0 mm 3 mps 748 mmHg 75%
    04:00 +16°C° 0 mm 2 mps 748 mmHg 74%
    05:00 +17°C° 0 mm 2 mps 748 mmHg 73%
    06:00 +18°C° 0 mm 1 mps 747 mmHg 72%
    07:00 +19°C° 0 mm 2 mps 747 mmHg 65%
    08:00 +21°C° 0 mm 2 mps 747 mmHg 58%
    09:00 +24°C° 0 mm 2 mps 747 mmHg 51%
    10:00 +25°C° 0 mm 2 mps 746 mmHg 47%
    11:00 +26°C° 0 mm 1 mps 745 mmHg 43%
    12:00 +28°C° 0 mm 1 mps 745 mmHg 39%
    13:00 +28°C° 0 mm 1 mps 744 mmHg 37%
    14:00 +29°C° 0 mm 2 mps 744 mmHg 35%
    15:00 +29°C° 0 mm 2 mps 743 mmHg 33%
    16:00 +29°C° 0 mm 2 mps 742 mmHg 35%
    17:00 +29°C° 0 mm 3 mps 742 mmHg 37%
    18:00 +28°C° 0 mm 3 mps 741 mmHg 39%
    19:00 +26°C° 0 mm 3 mps 740 mmHg 44%
    20:00 +24°C° 0 mm 2 mps 740 mmHg 48%
    21:00 +21°C° 0 mm 2 mps 739 mmHg 52%
    22:00 +21°C° 0 mm 2 mps 739 mmHg 55%
    23:00 +20°C° 0 mm 3 mps 738 mmHg 58%

    28 June, Friday

    Time Temperature Precipitation Wind Pressure Humidity
    00:00 +19°C° 0 mm 3 mps 738 mmHg 61%
    01:00 +19°C° 0 mm 3 mps 737 mmHg 64%
    02:00 +19°C° 0 mm 3 mps 737 mmHg 67%
    03:00 +18°C° 0 mm 3 mps 736 mmHg 71%
    04:00 +19°C° 0.1 mm 4 mps 736 mmHg 72%
    05:00 +19°C° 0.1 mm 4 mps 735 mmHg 73%
    06:00 +19°C° 0.1 mm 4 mps 735 mmHg 74%
    07:00 +21°C° 0.4 mm 5 mps 735 mmHg 75%
    08:00 +22°C° 0.4 mm 5 mps 735 mmHg 76%
    09:00 +23°C° 0.4 mm 5 mps 735 mmHg 77%
    10:00 +24°C° 0.1 mm 6 mps 735 mmHg 71%
    11:00 +24°C° 0.1 mm 6 mps 735 mmHg 65%
    12:00 +26°C° 0.1 mm 7 mps 735 mmHg 59%
    13:00 +26°C° 0 mm 7 mps 735 mmHg 56%
    14:00 +26°C° 0 mm 6 mps 735 mmHg 52%
    15:00 +27°C° 0 mm 6 mps 735 mmHg 49%
    16:00 +26°C° 0 mm 6 mps 735 mmHg 49%
    17:00 +26°C° 0 mm 6 mps 735 mmHg 49%
    18:00 +25°C° 0 mm 5 mps 735 mmHg 49%
    19:00 +22°C° 0 mm 5 mps 736 mmHg 54%
    20:00 +21°C° 0 mm 4 mps 736 mmHg 59%
    21:00 +19°C° 0 mm 4 mps 736 mmHg 65%
    22:00 +18°C° 0 mm 4 mps 737 mmHg 68%
    23:00 +17°C° 0 mm 3 mps 737 mmHg 71%

    29 June, Saturday

    Time Temperature Precipitation Wind Pressure Humidity
    00:00 +16°C° 0 mm 3 mps 737 mmHg 74%
    01:00 +14°C° 0 mm 3 mps 737 mmHg 76%
    02:00 +13°C° 0 mm 3 mps 737 mmHg 79%
    03:00 +14°C° 0 mm 2 mps 737 mmHg 81%
    04:00 +13°C° 0 mm 3 mps 737 mmHg 80%
    05:00 +14°C° 0 mm 3 mps 737 mmHg 79%
    06:00 +14°C° 0 mm 4 mps 737 mmHg 78%
    07:00 +15°C° 0 mm 4 mps 738 mmHg 73%
    08:00 +18°C° 0 mm 4 mps 738 mmHg 67%
    09:00 +19°C° 0 mm 5 mps 738 mmHg 62%
    10:00 +20°C° 0.3 mm 5 mps 738 mmHg 59%
    11:00 +21°C° 0.3 mm 5 mps 738 mmHg 56%
    12:00 +22°C° 0.3 mm 5 mps 738 mmHg 53%
    13:00 +22°C° 0.5 mm 5 mps 738 mmHg 54%
    14:00 +21°C° 0.5 mm 5 mps 738 mmHg 55%
    15:00 +21°C° 0.5 mm 4 mps 738 mmHg 56%
    16:00 +20°C° 1 mm 5 mps 738 mmHg 59%
    17:00 +20°C° 1 mm 5 mps 739 mmHg 62%
    18:00 +19°C° 1 mm 5 mps 739 mmHg 65%
    19:00 +17°C° 0.3 mm 4 mps 739 mmHg 68%
    20:00 +15°C° 0.3 mm 4 mps 739 mmHg 71%
    21:00 +14°C° 0.3 mm 4 mps 740 mmHg 75%
    22:00 +13°C° 0 mm 3 mps 740 mmHg 77%
    23:00 +12°C° 0 mm 3 mps 740 mmHg 79%

    30 June, Sunday

    Time Temperature Precipitation Wind Pressure Humidity
    00:00 +11°C° 0 mm 3 mps 740 mmHg 81%
    01:00 +10°C° 0 mm 3 mps 740 mmHg 82%
    02:00 +9°C° 0 mm 3 mps 740 mmHg 83%
    03:00 +9°C° 0 mm 3 mps 740 mmHg 84%
    04:00 +9°C° 0 mm 3 mps 741 mmHg 83%
    05:00 +10°C° 0 mm 3 mps 741 mmHg 81%
    06:00 +10°C° 0 mm 3 mps 741 mmHg 80%
    07:00 +12°C° 0 mm 3 mps 741 mmHg 72%
    08:00 +14°C° 0 mm 4 mps 741 mmHg 64%
    09:00 +17°C° 0 mm 4 mps 742 mmHg 56%
    10:00 +18°C° 0 mm 4 mps 742 mmHg 52%
    11:00 +19°C° 0 mm 4 mps 742 mmHg 47%
    12:00 +20°C° 0 mm 4 mps 742 mmHg 43%
    13:00 +20°C° 0.1 mm 4 mps 742 mmHg 43%
    14:00 +20°C° 0.1 mm 4 mps 742 mmHg 44%
    15:00 +20°C° 0.1 mm 4 mps 742 mmHg 44%
    16:00 +20°C° 0 mm 4 mps 742 mmHg 47%
    17:00 +19°C° 0 mm 4 mps 742 mmHg 50%
    18:00 +19°C° 0 mm 4 mps 743 mmHg 52%
    19:00 +17°C° 0 mm 3 mps 743 mmHg 56%
    20:00 +16°C° 0 mm 3 mps 743 mmHg 61%
    21:00 +15°C° 0 mm 2 mps 743 mmHg 65%
    22:00 +14°C° 0 mm 2 mps 743 mmHg 66%
    23:00 +14°C° 0 mm 2 mps 744 mmHg 67%
    Show more